Location: B�retswil
(47.3376°N, 8.8534°E)
Time: 21:24:29
(UTC+00:00)

ERBS - Pass Details

Date: 03 March 2021
Orbit: 408 x 412 km, 57.0° (Epoch: 14 April)

Event Time Altitude Azimuth Distance (km) Brightness Sun altitude
Rises 18:56:55 0° 271° (W) 2,351 7.7 -18.4°
Reaches altitude 10° 18:59:18 10° 287° (WNW) 1,489 6.3 -18.8°
Maximum altitude 19:01:59 22° 341° (NNW) 960 4.4 -19.2°
Enters shadow 19:03:23 17° 16° (NNE) 1,129 4.4 -19.4°
